Create Custom Reports and Graphics: Custom Report

Last 6 Observations

Last 30 Minutes (5-Min)

5 Minute Data | America/Los_Angeles
as of 5/8/26 12:20 AM PDT
Date & Time Wind Spd (mph) Wind Dir (°) Wind Gust (mph) Wind Spd Sonic (mph) Wind Dir Sonic (°) Wind Gust Sonic (mph)
5/8/26 - 0020 14.6 WNW | 285 17.8 19.2 SSW | 212 20.8
5/8/26 - 0015 14.7 W | 279 18.1 19.4 SSW | 212 20.4
5/8/26 - 0010 15.4 W | 261 18.7 19.8 SW | 214 21.5
5/8/26 - 0005 16.1 W | 280 19.8 20.2 SW | 215 22.4
5/8/26 - 0000 15.2 W | 266 18.8 19.7 SSW | 212 20.8
5/7/26 - 2355 15.6 W | 262 19.2 20.0 SSW | 212 20.8
Max 16.1 - 19.8 20.2 - 22.4
Avg 15.3 - 18.7 19.7 - 21.1
Min 14.6 - 17.8 19.2 - 20.4

Top Stn/Summit - 11,053ft

Current Conditions

5/8/26 12:15 AM (-07:00)
Updated Every 15 Minutes
Wind Spd 15.4 mph   8.6
Wind Spd Sonic 19.8 mph   9.3
Wind Dir W | 274 °
Wind Dir Sonic SW | 214 °
Wind Gust 19.8 mph   10.3
Wind Gust Sonic 22.4 mph   8.7
Temp 38.5 °F   1.2
WindChill 29.1 °F   3.8
RH 87 %   37
Dew Pt 34.8 °F   14.5
Wet Bulb 37.0 °F   5.6
Daily Max Wind 38.2 mph   12.4
Time of Max Wind 1403
Max Wind Dir SW | 220 °
Daily Max Gust Sonic 36.9 mph   10.3
Time Wind Max Sonic 1220
Dir Max Gust Sonic SW | 223 Degrees
Daily Max Temp 44.0 °F   1.8
Daily Min Temp 36.9 °F   9.0
Yest MaxT 42.2 °F
Yest MinT 27.9 °F
Yest MaxGst 50.6 mph

Last 24 Hours

Top Stn/Summit - 11,053ft

15 Minute Data | America/Los_Angeles
as of 5/8/26 12:20 AM PDT
Date & Time Temp (°F) WindChill (°F) RH (%) Dew Pt (°F) Wet Bulb (°F) Wind Spd (mph) Wind Spd Sonic (mph) Wind Dir (°) Wind Dir Sonic (°) Wind Gust (mph) Wind Gust Sonic (mph) Daily Min Temp (°F) Daily Max Temp (°F) Daily Max Wind (mph) Daily Max Gust Sonic (mph)
5/8/26 - 0015 38.5 29.1 87 34.8 37.0 15.4 19.8 W | 274 SW | 214 19.8 22.4 36.9 44.0 38.2 36.9
5/8/26 - 0000 38.4 29.0 86 34.7 36.9 15.6 20.2 WSW | 250 SSW | 212 20.0 22.2 36.9 44.0 38.2 36.9
5/7/26 - 2345 37.1 26.4 91 34.6 36.1 18.2 22.6 SW | 220 SW | 217 23.3 24.4 36.9 44.0 38.2 36.9
5/7/26 - 2330 37.4 26.8 88 34.2 36.1 18.7 23.3 SW | 223 SW | 217 23.1 24.6 37.0 44.0 38.2 36.9
5/7/26 - 2315 37.8 27.1 88 34.6 36.5 19.5 24.3 WSW | 240 SW | 216 25.1 25.7 37.0 44.0 38.2 36.9
5/7/26 - 2300 37.9 27.2 90 35.2 36.8 19.2 24.2 NW | 307 SW | 214 24.4 26.0 37.0 44.0 38.2 36.9
5/7/26 - 2245 38.1 27.9 93 36.1 37.3 18.4 23.1 NW | 309 SSW | 213 22.5 25.0 37.0 44.0 38.2 36.9
5/7/26 - 2230 37.9 27.4 99 37.7 37.9 18.9 23.5 NW | 320 SSW | 213 23.7 25.7 37.0 44.0 38.2 36.9
5/7/26 - 2215 38.2 27.9 100 38.2 38.4 18.8 23.7 NNW | 327 SSW | 212 23.5 25.3 37.0 44.0 38.2 36.9
5/7/26 - 2200 38.1 27.7 100 38.2 38.3 19.0 23.7 WNW | 296 SW | 214 23.5 25.0 37.0 44.0 38.2 36.9
5/7/26 - 2145 38.4 27.9 100 38.4 38.5 19.3 23.7 WNW | 300 SSW | 213 24.7 26.6 37.0 44.0 38.2 36.9
5/7/26 - 2130 38.7 28.5 100 38.7 38.9 18.9 23.6 NW | 316 SSW | 212 23.3 26.2 37.0 44.0 38.2 36.9
5/7/26 - 2115 38.9 28.7 100 38.9 39.0 18.6 23.6 WNW | 294 SSW | 212 23.5 25.5 37.0 44.0 38.2 36.9
5/7/26 - 2100 38.7 28.4 100 38.7 38.9 19.1 23.6 SW | 230 SW | 214 24.0 27.1 37.0 44.0 38.2 36.9
5/7/26 - 2045 39.0 28.6 100 39.0 39.2 19.6 24.1 WSW | 254 SW | 215 25.0 27.1 37.0 44.0 38.2 36.9
5/7/26 - 2030 39.2 28.8 100 39.2 39.3 20.2 24.9 SW | 235 SW | 216 24.6 27.5 37.0 44.0 38.2 36.9
5/7/26 - 2015 39.2 28.7 100 39.2 39.4 20.4 25.2 W | 264 SW | 215 26.2 27.5 37.0 44.0 38.2 36.9
5/7/26 - 2000 39.3 28.8 100 39.3 39.5 20.3 25.2 SW | 234 SW | 215 26.3 28.0 37.0 44.0 38.2 36.9
5/7/26 - 1945 39.3 28.7 100 39.3 39.5 20.5 24.4 SW | 222 SW | 216 27.4 30.0 37.0 44.0 38.2 36.9
5/7/26 - 1930 39.4 28.5 99 39.2 39.5 21.8 24.6 SW | 221 SW | 217 29.0 29.3 37.0 44.0 38.2 36.9
5/7/26 - 1915 39.3 28.2 97 38.6 39.1 22.9 27.1 SW | 223 SW | 218 30.4 32.7 37.0 44.0 38.2 36.9
5/7/26 - 1900 40.2 29.1 92 38.1 39.4 23.8 26.9 SW | 226 SW | 220 32.4 31.8 37.0 44.0 38.2 36.9
5/7/26 - 1845 40.0 28.6 91 37.5 39.0 24.9 28.0 SW | 224 SW | 220 33.6 33.8 37.0 44.0 38.2 36.9
5/7/26 - 1830 40.1 28.6 88 37.0 38.9 25.6 28.9 SW | 224 SW | 219 34.2 36.0 37.0 44.0 38.2 36.9
5/7/26 - 1815 40.5 29.1 87 37.0 39.1 26.0 29.1 SW | 222 SW | 217 33.6 34.0 37.0 44.0 38.2 36.9
5/7/26 - 1800 41.1 30.0 85 36.8 39.3 25.2 28.1 SW | 226 SW | 221 34.3 36.2 37.0 44.0 38.2 36.9
5/7/26 - 1745 41.2 30.1 84 36.7 39.4 25.8 27.5 SW | 226 SW | 223 35.4 35.6 37.0 44.0 38.2 36.9
5/7/26 - 1730 41.6 30.4 81 36.1 39.3 26.4 28.5 SW | 222 SW | 218 37.0 36.0 37.0 44.0 38.2 36.9
5/7/26 - 1715 41.6 30.2 80 35.9 39.2 27.1 29.6 SW | 222 SW | 217 37.3 36.7 37.0 44.0 38.2 36.9
5/7/26 - 1700 42.4 31.5 77 35.6 39.5 26.0 27.6 SW | 216 SW | 221 36.4 36.0 37.0 44.0 38.2 36.9
5/7/26 - 1645 43.2 32.8 73 35.1 39.8 24.7 25.6 SW | 216 SW | 221 34.8 36.2 37.0 44.0 38.2 36.9
5/7/26 - 1630 43.4 33.4 72 34.9 39.8 22.1 22.1 SW | 216 SW | 228 33.9 32.4 37.0 44.0 38.2 36.9
5/7/26 - 1615 43.2 33.0 70 34.2 39.4 22.5 22.7 SW | 216 SW | 228 35.2 32.7 37.0 44.0 38.2 36.9
5/7/26 - 1600 42.9 32.3 70 34.0 39.2 24.7 25.5 SW | 216 SW | 224 36.3 34.4 37.0 44.0 38.2 36.9
5/7/26 - 1545 43.8 33.8 68 33.8 39.6 21.6 21.4 SW | 217 SW | 228 34.9 36.0 37.0 44.0 38.2 36.9
5/7/26 - 1530 43.3 33.4 67 33.2 39.1 22.4 23.2 SW | 217 SW | 226 32.8 35.3 37.0 43.9 38.2 36.9
5/7/26 - 1515 43.2 33.2 66 32.5 38.7 23.0 23.4 SW | 218 SW | 226 32.6 33.6 37.0 43.9 38.2 36.9
5/7/26 - 1500 43.6 33.6 64 32.1 38.8 22.5 23.4 SW | 218 SW | 218 34.3 31.8 37.0 43.9 38.2 36.9
5/7/26 - 1445 43.4 33.4 63 31.7 38.6 22.8 23.3 SW | 219 SW | 219 33.4 31.5 37.0 43.8 38.2 36.9
5/7/26 - 1430 43.2 33.0 63 31.3 38.3 21.9 22.3 SW | 219 SW | 225 35.7 33.1 37.0 43.8 38.2 36.9
5/7/26 - 1415 42.9 32.4 62 31.0 38.0 21.9 22.4 SW | 220 SW | 224 38.2 34.9 37.0 43.6 38.2 36.9
5/7/26 - 1400 42.9 32.4 61 30.3 37.8 23.9 24.5 SW | 221 SW | 222 36.6 34.4 37.0 43.6 36.6 36.9
5/7/26 - 1345 42.8 32.8 58 29.2 37.3 22.0 22.9 SW | 223 SW | 222 32.7 32.0 37.0 43.3 36.1 36.9
5/7/26 - 1330 42.7 32.8 57 28.4 37.0 22.0 22.8 SW | 224 SW | 223 30.9 31.5 37.0 43.1 36.1 36.9
5/7/26 - 1315 42.8 32.6 55 27.8 36.8 21.2 22.3 SW | 226 SW | 219 34.6 35.3 37.0 43.1 36.1 36.9
5/7/26 - 1300 42.6 32.6 55 27.4 36.6 20.7 22.0 SW | 229 SW | 218 32.7 32.2 37.0 43.0 36.1 36.9
5/7/26 - 1245 42.5 32.5 53 26.5 36.3 20.0 20.7 SW | 232 SW | 218 32.4 30.2 37.0 43.0 36.1 36.9
5/7/26 - 1230 42.4 32.0 51 25.5 35.9 20.3 23.0 SW | 234 SW | 220 36.1 36.9 37.0 42.8 36.1 36.9
5/7/26 - 1215 42.3 32.6 49 24.6 35.6 18.9 19.3 WSW | 237 SW | 228 29.4 29.3 37.0 42.6 33.2 33.6
5/7/26 - 1200 41.5 31.4 49 23.6 34.8 18.5 20.6 WSW | 237 SW | 223 31.6 33.6 37.0 42.2 33.2 33.6
5/7/26 - 1145 41.9 32.4 45 22.1 34.6 18.8 20.7 WSW | 237 SW | 221 26.5 28.2 37.0 42.2 33.2 33.1
5/7/26 - 1130 41.0 30.8 46 22.0 34.0 19.3 21.9 SW | 236 SW | 219 29.4 28.4 37.0 41.8 33.2 33.1
5/7/26 - 1115 40.8 30.6 44 20.7 33.6 20.0 23.2 SW | 236 SSW | 211 28.0 28.4 37.0 41.8 33.2 33.1
5/7/26 - 1100 40.6 30.2 45 21.0 33.6 20.6 23.4 SW | 236 SSW | 207 29.3 29.3 37.0 41.8 33.2 33.1
5/7/26 - 1045 40.5 30.4 47 21.7 33.7 19.2 22.5 SW | 235 SSW | 213 27.0 27.5 37.0 41.8 33.2 33.1
5/7/26 - 1030 40.0 30.0 49 22.3 33.6 17.9 21.6 SW | 235 SW | 214 25.6 26.0 37.0 41.8 33.2 33.1
5/7/26 - 1015 39.8 30.0 49 22.4 33.5 18.0 22.0 SW | 234 SW | 215 24.2 27.1 37.0 41.8 33.2 33.1
5/7/26 - 1000 39.8 29.9 49 22.0 33.3 17.6 21.5 SW | 234 SSW | 213 24.3 26.8 37.0 41.8 33.2 33.1
5/7/26 - 0945 39.7 29.9 48 21.5 33.1 17.6 21.6 SW | 233 SW | 214 23.8 26.2 37.0 41.8 33.2 33.1
5/7/26 - 0930 39.8 30.1 47 21.0 33.1 17.4 21.1 SW | 232 SW | 214 23.1 23.9 37.0 41.8 33.2 33.1
5/7/26 - 0915 40.4 31.3 44 20.5 33.3 15.7 19.8 SW | 232 SSW | 212 22.0 23.9 37.0 41.8 33.2 33.1
5/7/26 - 0900 40.6 31.3 43 19.8 33.2 16.1 19.9 SW | 231 SSW | 210 23.6 24.8 37.0 41.8 33.2 33.1
5/7/26 - 0845 41.5 33.0 40 18.7 33.5 14.8 18.6 SW | 231 SSW | 208 20.6 21.5 37.0 41.8 33.2 33.1
5/7/26 - 0830 41.0 32.8 39 18.2 33.1 14.1 17.6 SW | 230 SSW | 205 18.4 20.1 37.0 41.4 33.2 33.1
5/7/26 - 0815 40.3 31.8 39 17.2 32.4 14.2 17.8 SW | 229 SSW | 203 18.7 19.7 37.0 40.6 33.2 33.1
5/7/26 - 0800 40.1 31.4 38 16.8 32.2 14.7 18.4 SW | 229 SSW | 203 19.4 21.2 37.0 40.4 33.2 33.1
5/7/26 - 0745 39.8 31.0 37 15.8 31.8 14.5 18.4 SW | 229 SSW | 202 18.8 21.7 37.0 39.9 33.2 33.1
5/7/26 - 0730 39.6 31.3 38 16.0 31.8 13.1 17.2 SW | 228 SSW | 201 17.5 19.2 37.0 39.9 33.2 33.1
5/7/26 - 0715 39.3 31.1 38 16.1 31.6 12.8 16.7 SW | 228 SSW | 205 16.2 18.1 37.0 39.5 33.2 33.1
5/7/26 - 0700 38.8 31.0 39 16.2 31.3 11.4 15.5 SW | 228 SSW | 206 14.5 17.2 37.0 39.4 33.2 33.1
5/7/26 - 0645 38.5 30.8 39 15.9 31.1 10.8 14.8 SW | 228 SSW | 206 14.1 16.6 37.0 39.4 33.2 33.1
5/7/26 - 0630 38.2 30.4 38 15.1 30.7 10.7 15.0 SW | 228 SSW | 206 14.2 16.8 37.0 39.4 33.2 33.1
5/7/26 - 0615 37.8 30.1 37 13.9 30.2 10.2 14.8 SW | 227 SSW | 212 13.6 17.0 37.0 39.4 33.2 33.1
5/7/26 - 0600 37.6 30.2 33 10.9 29.5 8.9 13.2 SW | 227 SW | 214 13.2 16.3 37.0 39.4 33.2 33.1
5/7/26 - 0545 37.9 33.9 27 7.0 29.0 2.7 6.7 SW | 226 SSW | 207 7.7 11.2 37.0 39.4 33.2 33.1
5/7/26 - 0530 38.5 36.1 26 6.8 29.3 1.9 6.1 SW | 225 SW | 218 5.1 10.5 37.0 39.4 33.2 33.1
5/7/26 - 0515 38.5 - 29 8.4 29.7 0.2 3.4 SW | 224 WNW | 300 1.2 8.5 37.0 39.3 33.2 33.1
5/7/26 - 0500 38.0 32.9 40 16.1 30.8 4.4 7.7 SW | 223 N | 350 8.9 11.9 37.0 38.2 33.2 33.1
5/7/26 - 0445 37.9 30.6 42 16.8 30.9 9.7 12.7 SW | 223 N | 1 12.4 15.0 37.0 38.0 33.2 33.1
5/7/26 - 0430 37.8 30.4 44 17.9 31.1 9.4 12.9 SW | 222 N | 3 13.0 15.2 37.0 38.0 33.2 33.1
5/7/26 - 0415 37.6 29.2 47 19.3 31.4 12.2 15.7 SW | 222 N | 7 15.2 17.4 37.0 37.7 33.2 33.1
5/7/26 - 0400 37.4 29.3 50 20.6 31.6 11.0 14.7 SW | 222 N | 7 14.6 16.8 37.0 37.7 33.2 33.1
5/7/26 - 0345 37.4 28.8 51 20.8 31.6 12.0 15.2 SW | 221 N | 5 15.8 17.4 37.0 37.7 33.2 33.1
5/7/26 - 0330 37.4 28.8 50 20.6 31.6 11.8 14.9 SW | 221 N | 6 16.7 17.4 37.0 37.7 33.2 33.1
5/7/26 - 0315 37.4 28.0 51 21.0 31.7 14.7 17.6 SW | 220 N | 7 18.6 19.2 37.0 37.7 33.2 33.1
5/7/26 - 0300 37.4 27.0 51 20.8 31.6 17.9 21.7 SW | 220 N | 10 23.6 25.7 37.0 37.7 33.2 33.1
5/7/26 - 0245 37.4 26.2 52 21.4 31.8 20.4 24.5 SW | 220 NNE | 14 27.0 27.5 37.0 37.7 33.2 33.1
5/7/26 - 0230 37.6 26.0 52 21.7 31.9 22.8 27.6 SW | 220 N | 11 28.3 29.3 37.0 37.7 33.2 33.1
5/7/26 - 0215 37.4 25.5 52 21.3 31.7 23.6 28.6 SW | 220 NNE | 14 30.4 31.3 37.0 37.6 33.2 33.1
5/7/26 - 0200 37.2 24.9 51 20.9 31.5 26.3 31.5 SW | 221 NNE | 17 31.7 32.7 37.0 37.6 33.2 33.1
5/7/26 - 0145 37.2 24.8 51 20.8 31.5 26.3 30.6 SW | 221 NNE | 19 32.8 33.1 37.0 37.6 33.2 33.1
5/7/26 - 0130 37.1 24.6 51 20.6 31.4 26.7 30.2 SW | 222 NNE | 20 33.2 32.9 37.0 37.6 33.2 32.9
5/7/26 - 0115 37.3 24.8 51 20.7 31.5 26.9 30.4 SW | 222 NNE | 18 33.2 32.7 37.0 37.6 33.2 32.7
5/7/26 - 0100 37.6 25.2 50 20.6 31.7 27.3 31.8 SW | 223 NNE | 17 33.9 33.6 27.9 42.2 50.6 47.2
5/7/26 - 0045 37.5 25.2 51 21.0 31.7 25.8 31.2 SW | 223 NNE | 13 33.1 33.8 27.9 42.2 50.6 47.2
5/7/26 - 0030 37.4 25.4 50 20.7 31.6 24.3 29.9 SW | 223 N | 9 30.7 32.7 27.9 42.2 50.6 47.2
5/7/26 - 0015 37.3 25.4 50 20.3 31.4 24.1 29.1 SW | 223 N | 8 30.1 31.1 27.9 42.2 50.6 47.2
Max 43.8 36.1 100 39.3 39.8 27.3 31.8 - - 38.2 36.9 37.0 44.0 50.6 47.2
Avg 39.8 29.9 63 26.8 35.2 18.8 22.0 - - 25.9 27.0 - - - -
Min 37.1 24.6 26 6.8 29.0 0.2 3.4 - - 1.2 8.5 27.9 37.6 33.2 32.7
Calm: 0.0%